Past Weather in Atlanta, Georgia, USA — Yesterday or Further Back
Home   Weather   Atlanta   Past weeks
Flag for USA

Past Weather in Atlanta, Georgia, USA — Yesterday and Last 2 Weeks

Now
66 °F

Sunny.


Feels Like: 66 °F
Forecast: 86 / 67 °F
Wind: No wind

Location: Fulton County Airport-Brown Field

Current Time: Jun 3, 2020 at 8:09:06 am

Latest Report: Jun 3, 2020 at 6:53 am


Visibility: 10 mi

Pressure: 30.06 "Hg

Humidity: 90%

Dew Point: 63 °F

Location of AtlantaLocation

Past Weather in Atlanta — Graph

°F

Atlanta Temperature Yesterday

Maximum temperature yesterday: 85 °F (at 3:53 pm)
Minimum temperature yesterday: 62 °F (at 5:53 am)
Average temperature yesterday: 74 °F

High & Low Weather Summary for the Past Weeks

 TemperatureHumidityPressure
High86 °F (May 24, 4:08 pm)97% (May 23, 7:12 am)30.24 "Hg (May 23, 7:12 am)
Low54 °F (May 21, 4:53 am)37% (May 31, 5:53 pm)29.73 "Hg (May 19, 6:53 am)
Average71 °F73%30.02 "Hg
* Reported May 19 6:53 am — Jun 3 6:53 am, Atlanta. Weather by CustomWeather, © 2020

Note: Actual official high and low records may vary slightly from our data, if they occured in-between our weather recording intervals... More about our weather records

Atlanta Weather History for the Previous 24 Hours

Scroll right to see more
 ConditionsComfort  
Time TempWeatherWind HumidityBarometerVisibility
6:53 am
Wed, Jun 3
66 °FSunny.No wind90%30.06 "Hg10 mi
5:53 am66 °FClear.No wind90%30.06 "Hg10 mi
4:53 am69 °FClear.No wind84%30.06 "Hg10 mi
3:53 am69 °FClear.No wind84%30.06 "Hg10 mi
2:53 am71 °FClear.3 mph81%30.06 "Hg10 mi
1:53 am71 °FClear.3 mph81%30.07 "Hg10 mi
12:53 am68 °FClear.No wind87%30.09 "Hg10 mi
11:53 pm
Tue, Jun 2
70 °FClear.No wind81%30.10 "Hg10 mi
10:53 pm72 °FClear.No wind73%30.10 "Hg10 mi
9:53 pm77 °FClear.No wind62%30.09 "Hg10 mi
8:53 pm81 °FClear.3 mph51%30.08 "Hg10 mi
7:53 pm83 °FSunny.5 mph46%30.07 "Hg10 mi
6:53 pm85 °FPartly sunny.7 mph43%30.07 "Hg10 mi
5:53 pm84 °FScattered clouds.6 mph46%30.08 "Hg10 mi
4:53 pm85 °FPassing clouds.5 mph45%30.09 "Hg10 mi
3:53 pm85 °FPartly sunny.7 mph43%30.11 "Hg10 mi
2:53 pm82 °FPartly sunny.6 mph48%30.13 "Hg10 mi
1:53 pm82 °FScattered clouds.5 mph48%30.16 "Hg10 mi
12:53 pm81 °FSunny.8 mph51%30.18 "Hg10 mi
11:53 am79 °FSunny.5 mph52%30.19 "Hg10 mi
10:53 am77 °FSunny.7 mph56%30.20 "Hg10 mi
9:53 am74 °FSunny.6 mph62%30.22 "Hg10 mi
8:53 am70 °FSunny.3 mph71%30.21 "Hg10 mi
Weather by CustomWeather, © 2020

See weather overview